Location: �terpigny
(49.8910°N, 2.9249°E)
Time: 12:57:04
(UTC+00:00)

RS-44 - Pass Details

Date: 09 July 2022
Orbit: 1175 x 1510 km, 82.5° (Epoch: 12 August)

Event Time Altitude Azimuth Distance (km) Brightness Sun altitude
Rises 22:49:21 0° 277° (W) 4,571 ? -16.4°
Reaches altitude 10° 22:56:31 10° 317° (NW) 3,658 ? -16.7°
Maximum altitude 22:57:41 10° 325° (NW) 3,643 ? -16.8°
Drops below altitude 10° 22:58:52 10° 333° (NNW) 3,671 ? -16.8°
Sets 23:06:12 0° 12° (NNE) 4,664 ? -17.1°
